DLH447 KDEN-EDDF

Flight info

Callsign DLH447
Flight time N/A
Altitude 35000
Route CHUWY1 CHUWY DCT KP87C DCT 4930N09000W 5430N08000W 5830N07000W/M083F350 DCT MAXAR DCT 6230N05000W/M083F370 6230N04000W/M082F390 6130N03000W 60N020W DCT ETILO/N0471F390 DCT EVNAL DCT ERKIT N110 DOLAS DCT NAVPI DCT NOLRU DCT DIXAT DIXAT1A
Aircraft A343/H-SDE2E3FGHIJ3J5M1P2RWXYZ/LB1D1

Departure

Time 2026-05-06 12:25
Airport Denver International Airport (KDEN)

Arrival

Time N/A
Airport Frankfurt Main Airport (EDDF)
Time Latitude Longitude Altitude Speed Heading
2026-05-06 11:57 39.85445 -104.67220 5387 ft 0 kts 191°
2026-05-06 12:12 39.85447 -104.67219 5380 ft 2 kts 191°
2026-05-06 12:13 39.85463 -104.67223 5385 ft 4 kts 172°
2026-05-06 12:13 39.85490 -104.67226 5385 ft 4 kts 177°
2026-05-06 12:13 39.85517 -104.67227 5383 ft 4 kts 177°
2026-05-06 12:13 39.85539 -104.67228 5382 ft 4 kts 223°
2026-05-06 12:14 39.85543 -104.67203 5383 ft 4 kts 278°
2026-05-06 12:14 39.85540 -104.67171 5382 ft 2 kts 270°
2026-05-06 12:14 39.85540 -104.67164 5382 ft 0 kts 270°
2026-05-06 12:16 39.85540 -104.67171 5382 ft 2 kts 270°
2026-05-06 12:17 39.85540 -104.67208 5385 ft 6 kts 270°
2026-05-06 12:17 39.85540 -104.67276 5382 ft 9 kts 270°
2026-05-06 12:17 39.85540 -104.67372 5387 ft 12 kts 270°
2026-05-06 12:17 39.85540 -104.67492 5386 ft 14 kts 270°
2026-05-06 12:18 39.85541 -104.67634 5386 ft 17 kts 270°
2026-05-06 12:18 39.85542 -104.67794 5386 ft 18 kts 270°
2026-05-06 12:18 39.85543 -104.67954 5387 ft 17 kts 270°
2026-05-06 12:18 39.85543 -104.68108 5387 ft 16 kts 270°
2026-05-06 12:19 39.85522 -104.68204 5383 ft 3 kts 202°
2026-05-06 12:19 39.85514 -104.68203 5386 ft 0 kts 179°
2026-05-06 12:19 39.85513 -104.68203 5387 ft 0 kts 179°
2026-05-06 12:19 39.85513 -104.68202 5387 ft 0 kts 179°
2026-05-06 12:20 39.85497 -104.68202 5387 ft 4 kts 178°
2026-05-06 12:20 39.85449 -104.68199 5387 ft 9 kts 177°
2026-05-06 12:20 39.85370 -104.68198 5387 ft 13 kts 181°
2026-05-06 12:20 39.85281 -104.68201 5387 ft 12 kts 181°
2026-05-06 12:21 39.85227 -104.68252 5380 ft 10 kts 244°
2026-05-06 12:21 39.85197 -104.68360 5377 ft 15 kts 250°
2026-05-06 12:21 39.85194 -104.68469 5377 ft 13 kts 281°
2026-05-06 12:21 39.85204 -104.68605 5375 ft 18 kts 265°
2026-05-06 12:22 39.85200 -104.68799 5365 ft 25 kts 268°
2026-05-06 12:22 39.85197 -104.69024 5357 ft 21 kts 269°
2026-05-06 12:22 39.85197 -104.69228 5350 ft 24 kts 271°
2026-05-06 12:22 39.85200 -104.69451 5344 ft 24 kts 271°
2026-05-06 12:23 39.85203 -104.69620 5344 ft 11 kts 273°
2026-05-06 12:23 39.85233 -104.69658 5341 ft 5 kts 353°
2026-05-06 12:23 39.85263 -104.69658 5342 ft 0 kts
2026-05-06 12:23 39.85265 -104.69658 5342 ft 1 kts
2026-05-06 12:24 39.85267 -104.69658 5342 ft 0 kts
2026-05-06 12:24 39.85390 -104.69656 5341 ft 44 kts
2026-05-06 12:24 39.85870 -104.69651 5344 ft 93 kts
2026-05-06 12:24 39.86666 -104.69642 5339 ft 134 kts
2026-05-06 12:25 39.87718 -104.69629 5344 ft 168 kts
2026-05-06 12:25 39.88892 -104.69629 5806 ft 165 kts 359°
2026-05-06 12:25 39.90031 -104.69670 6397 ft 166 kts 359°
2026-05-06 12:25 39.91225 -104.69723 6706 ft 178 kts
2026-05-06 12:26 39.92500 -104.69719 6969 ft 188 kts
2026-05-06 12:26 39.93823 -104.69622 7267 ft 197 kts
2026-05-06 12:26 39.95230 -104.69533 7566 ft 207 kts
2026-05-06 12:26 39.96708 -104.69513 7870 ft 218 kts
2026-05-06 12:27 39.98294 -104.69465 8025 ft 239 kts
2026-05-06 12:27 40.00025 -104.69401 8266 ft 257 kts
2026-05-06 12:27 40.01861 -104.69342 8651 ft 270 kts
2026-05-06 12:27 40.03734 -104.69040 9205 ft 273 kts 19°
2026-05-06 12:28 40.05450 -104.67984 9833 ft 273 kts 33°
2026-05-06 12:28 40.07070 -104.66644 10327 ft 281 kts 34°
2026-05-06 12:28 40.08755 -104.65206 10566 ft 296 kts 34°
2026-05-06 12:28 40.10525 -104.63701 10820 ft 311 kts 34°
2026-05-06 12:29 40.12382 -104.62131 11046 ft 325 kts 33°
2026-05-06 12:29 40.14326 -104.60491 11268 ft 340 kts 33°
2026-05-06 12:29 40.16329 -104.58804 11500 ft 353 kts 33°
2026-05-06 12:29 40.18439 -104.57027 11763 ft 365 kts 33°
2026-05-06 12:30 40.20589 -104.55216 12177 ft 372 kts 33°
2026-05-06 12:30 40.22785 -104.53366 12576 ft 379 kts 32°
2026-05-06 12:30 40.25015 -104.51484 13074 ft 384 kts 32°
2026-05-06 12:30 40.27273 -104.49578 13621 ft 388 kts 32°
2026-05-06 12:31 40.29548 -104.47655 14138 ft 391 kts 32°
2026-05-06 12:31 40.31849 -104.45709 14619 ft 395 kts 32°
2026-05-06 12:31 40.34164 -104.43749 15119 ft 398 kts 32°
2026-05-06 12:31 40.36500 -104.41771 15610 ft 401 kts 31°
2026-05-06 12:32 40.38847 -104.39780 16101 ft 404 kts 31°
2026-05-06 12:32 40.41220 -104.37767 16596 ft 407 kts 31°
2026-05-06 12:32 40.43604 -104.35742 17087 ft 410 kts 31°
2026-05-06 12:32 40.45193 -104.34391 17434 ft 412 kts 31°
2026-05-06 12:33 40.47602 -104.32342 18033 ft 412 kts 31°
2026-05-06 12:33 40.50013 -104.30289 18522 ft 415 kts 30°
2026-05-06 12:33 40.52446 -104.28217 18908 ft 419 kts 30°
2026-05-06 12:33 40.55707 -104.25425 19396 ft 426 kts 31°
2026-05-06 12:34 40.58068 -104.23032 19761 ft 432 kts 40°
2026-05-06 12:34 40.59526 -104.21152 20031 ft 436 kts 43°
2026-05-06 12:34 40.61612 -104.18217 20410 ft 440 kts 44°
2026-05-06 12:34 40.63697 -104.15232 20758 ft 445 kts 44°
2026-05-06 12:35 40.65771 -104.12259 21121 ft 449 kts 44°
2026-05-06 12:35 40.67897 -104.09215 21460 ft 453 kts 44°
2026-05-06 12:35 40.70040 -104.06146 21806 ft 457 kts 44°
2026-05-06 12:35 40.72202 -104.03051 22129 ft 461 kts 44°
2026-05-06 12:36 40.74384 -103.99924 22485 ft 465 kts 44°
2026-05-06 12:36 40.76579 -103.96775 22861 ft 468 kts 44°
2026-05-06 12:36 40.78792 -103.93598 23193 ft 472 kts 44°
2026-05-06 12:36 40.81021 -103.90395 23478 ft 475 kts 45°
2026-05-06 12:37 40.83264 -103.87169 23792 ft 479 kts 45°
2026-05-06 12:37 40.85522 -103.83913 24087 ft 482 kts 44°
2026-05-06 12:37 40.87798 -103.80630 24330 ft 486 kts 44°
2026-05-06 12:37 40.90089 -103.77326 24544 ft 488 kts 44°
2026-05-06 12:38 40.92387 -103.74008 24842 ft 490 kts 44°
2026-05-06 12:38 40.94662 -103.70718 25112 ft 492 kts 44°
2026-05-06 12:38 40.97012 -103.67317 25379 ft 495 kts 44°
2026-05-06 12:38 40.99313 -103.63984 25605 ft 498 kts 44°
2026-05-06 12:39 41.01655 -103.60585 25894 ft 500 kts 44°
2026-05-06 12:39 41.04004 -103.57172 26184 ft 502 kts 44°
2026-05-06 12:39 41.06356 -103.53749 26446 ft 504 kts 44°
2026-05-06 12:39 41.08715 -103.50313 26704 ft 506 kts 44°
2026-05-06 12:40 41.11093 -103.46847 26864 ft 510 kts 44°
2026-05-06 12:40 41.13498 -103.43339 27001 ft 515 kts 44°
2026-05-06 12:40 41.15903 -103.39823 27260 ft 516 kts 45°
2026-05-06 12:40 41.18321 -103.36286 27511 ft 518 kts 45°
2026-05-06 12:41 41.20746 -103.32732 27762 ft 520 kts 45°
2026-05-06 12:41 41.23180 -103.29166 28086 ft 520 kts 44°
2026-05-06 12:41 41.25614 -103.25598 28370 ft 521 kts 45°
2026-05-06 12:41 41.28049 -103.22016 28593 ft 523 kts 45°
2026-05-06 12:42 41.30459 -103.18467 28809 ft 525 kts 45°
2026-05-06 12:42 41.32915 -103.14848 29056 ft 526 kts 45°
2026-05-06 12:42 41.35365 -103.11232 29285 ft 527 kts 45°
2026-05-06 12:42 41.37837 -103.07581 29299 ft 533 kts 45°
2026-05-06 12:43 41.40325 -103.03903 29571 ft 533 kts 45°
2026-05-06 12:43 41.42808 -103.00226 29928 ft 532 kts 45°
2026-05-06 12:43 41.45280 -102.96561 30228 ft 531 kts 45°
2026-05-06 12:43 41.47745 -102.92901 30600 ft 528 kts 45°
2026-05-06 12:44 41.50177 -102.89285 31236 ft 518 kts 45°
2026-05-06 12:44 41.52580 -102.85712 31534 ft 517 kts 45°
2026-05-06 12:44 41.54976 -102.82125 31665 ft 519 kts 45°
2026-05-06 12:44 41.57339 -102.78559 31843 ft 519 kts 46°
2026-05-06 12:45 41.59725 -102.74946 31996 ft 521 kts 45°
2026-05-06 12:45 41.62148 -102.71273 31916 ft 528 kts 45°
2026-05-06 12:45 41.67009 -102.63898 32379 ft 527 kts 45°
2026-05-06 12:46 41.69425 -102.60227 32646 ft 525 kts 45°
2026-05-06 12:46 41.71840 -102.56556 32896 ft 525 kts 46°
2026-05-06 12:46 41.74236 -102.52910 33388 ft 517 kts 46°
2026-05-06 12:46 41.76606 -102.49298 33748 ft 514 kts 46°
2026-05-06 12:47 41.78972 -102.45689 33869 ft 515 kts 46°
2026-05-06 12:47 41.81341 -102.42075 34005 ft 516 kts 46°
2026-05-06 12:47 41.83713 -102.38452 34139 ft 518 kts 45°
2026-05-06 12:48 41.88489 -102.31142 34288 ft 521 kts 46°
2026-05-06 12:48 41.90874 -102.27484 34461 ft 520 kts 46°
2026-05-06 12:48 41.93250 -102.23834 34611 ft 520 kts 46°
2026-05-06 12:48 41.95597 -102.20224 34747 ft 519 kts 46°
2026-05-06 12:49 41.97968 -102.16573 34973 ft 517 kts 46°
2026-05-06 12:49 42.00330 -102.12930 35137 ft 516 kts 46°
2026-05-06 12:49 42.02694 -102.09281 35164 ft 519 kts 46°
2026-05-06 12:50 42.07430 -102.01958 35168 ft 519 kts 46°
2026-05-06 12:50 42.12174 -101.94605 35163 ft 520 kts 46°
2026-05-06 12:51 42.16922 -101.87226 35165 ft 521 kts 46°
2026-05-06 12:51 42.21665 -101.79837 35166 ft 521 kts 46°
2026-05-06 12:52 42.26378 -101.72475 35162 ft 521 kts 46°
2026-05-06 12:52 42.31112 -101.65062 35163 ft 521 kts 46°
2026-05-06 12:53 42.35852 -101.57622 35160 ft 523 kts 46°
2026-05-06 12:53 42.40599 -101.50152 35160 ft 523 kts 46°
2026-05-06 12:54 42.45339 -101.42673 35182 ft 523 kts 46°
2026-05-06 12:54 42.50063 -101.35199 35161 ft 521 kts 46°
2026-05-06 12:55 42.54765 -101.27742 35161 ft 520 kts 46°
2026-05-06 12:55 42.59478 -101.20252 35173 ft 522 kts 46°
2026-05-06 12:56 42.64189 -101.12743 35174 ft 523 kts 46°
2026-05-06 12:56 42.68901 -101.05213 35178 ft 522 kts 46°
2026-05-06 12:57 42.73597 -100.97688 35176 ft 520 kts 46°
2026-05-06 12:57 42.78234 -100.90240 35178 ft 519 kts 46°
2026-05-06 12:58 42.82899 -100.82728 35178 ft 519 kts 46°
2026-05-06 12:58 42.87562 -100.75202 35181 ft 519 kts 46°
2026-05-06 12:59 42.92212 -100.67676 35175 ft 519 kts 46°
2026-05-06 12:59 42.96857 -100.60138 35174 ft 518 kts 46°
2026-05-06 13:00 43.01489 -100.52600 35171 ft 517 kts 46°
2026-05-06 13:00 43.06123 -100.45043 35175 ft 518 kts 46°
2026-05-06 13:01 43.10722 -100.37524 35172 ft 519 kts 46°
2026-05-06 13:01 43.15350 -100.29937 35168 ft 518 kts 46°
2026-05-06 13:02 43.19965 -100.22349 35167 ft 517 kts 46°
2026-05-06 13:02 43.24562 -100.14773 35167 ft 517 kts 46°
2026-05-06 13:03 43.29163 -100.07172 35167 ft 518 kts 46°
2026-05-06 13:03 43.33760 -99.99556 35166 ft 518 kts 47°
2026-05-06 13:04 43.38358 -99.91918 35163 ft 518 kts 47°
2026-05-06 13:04 43.42921 -99.84320 35167 ft 517 kts 47°
2026-05-06 13:05 43.47503 -99.76668 35165 ft 517 kts 47°
2026-05-06 13:05 43.52077 -99.69012 35165 ft 518 kts 47°
2026-05-06 13:06 43.56652 -99.61334 35165 ft 518 kts 47°
2026-05-06 13:06 43.61219 -99.53646 35163 ft 518 kts 47°
2026-05-06 13:07 43.65753 -99.45995 35181 ft 517 kts 47°
2026-05-06 13:07 43.70311 -99.38282 35160 ft 517 kts 47°
2026-05-06 13:08 43.74858 -99.30569 35158 ft 518 kts 47°
2026-05-06 13:08 43.79402 -99.22842 35157 ft 518 kts 47°
2026-05-06 13:09 43.83943 -99.15096 35157 ft 518 kts 47°
2026-05-06 13:09 43.88483 -99.07332 35162 ft 517 kts 47°
2026-05-06 13:10 43.92971 -98.99636 35158 ft 517 kts 47°
2026-05-06 13:10 43.97515 -98.91826 35151 ft 517 kts 47°
2026-05-06 13:11 44.02004 -98.84088 35151 ft 517 kts 47°
2026-05-06 13:11 44.06513 -98.76294 35148 ft 517 kts 47°
2026-05-06 13:12 44.11023 -98.68476 35154 ft 516 kts 47°
2026-05-06 13:12 44.15507 -98.60681 35142 ft 515 kts 48°
2026-05-06 13:13 44.19979 -98.52892 35148 ft 515 kts 48°
2026-05-06 13:13 44.24442 -98.45094 35147 ft 515 kts 48°
2026-05-06 13:14 44.28900 -98.37283 35154 ft 515 kts 48°
2026-05-06 13:14 44.33353 -98.29461 35146 ft 514 kts 48°
2026-05-06 13:15 44.37797 -98.21631 35136 ft 512 kts 48°
2026-05-06 13:15 44.42191 -98.13870 35137 ft 512 kts 48°
2026-05-06 13:16 44.46612 -98.06041 35139 ft 512 kts 48°
2026-05-06 13:16 44.51212 -97.98455 35143 ft 509 kts 42°
2026-05-06 13:17 44.56189 -97.91390 35146 ft 510 kts 41°
2026-05-06 13:17 44.61235 -97.84390 35137 ft 510 kts 40°
2026-05-06 13:18 44.66266 -97.77411 35142 ft 511 kts 41°
2026-05-06 13:18 44.71314 -97.70371 35135 ft 511 kts 41°
2026-05-06 13:19 44.76348 -97.63321 35136 ft 510 kts 41°
2026-05-06 13:19 44.81353 -97.56290 35133 ft 508 kts 41°
2026-05-06 13:20 44.86368 -97.49229 35115 ft 509 kts 41°
2026-05-06 13:20 44.91378 -97.42158 35125 ft 509 kts 41°
2026-05-06 13:21 44.95536 -97.36274 35133 ft 509 kts 41°
2026-05-06 13:21 45.00525 -97.29195 35119 ft 507 kts 41°
2026-05-06 13:22 45.05486 -97.22139 35121 ft 506 kts 41°
2026-05-06 13:22 45.10447 -97.15067 35123 ft 506 kts 41°
2026-05-06 13:23 45.15407 -97.07976 35125 ft 506 kts 41°
2026-05-06 13:23 45.20320 -97.00934 35124 ft 504 kts 42°
2026-05-06 13:24 45.25238 -96.93865 35132 ft 503 kts 42°
2026-05-06 13:24 45.30161 -96.86774 35127 ft 504 kts 42°
2026-05-06 13:25 45.35086 -96.79658 35128 ft 504 kts 42°
2026-05-06 13:25 45.40005 -96.72534 35129 ft 504 kts 42°
2026-05-06 13:26 45.44900 -96.65422 35126 ft 502 kts 42°
2026-05-06 13:26 45.49793 -96.58298 35130 ft 503 kts 42°
2026-05-06 13:27 45.54652 -96.51205 35126 ft 504 kts 42°
2026-05-06 13:27 45.59546 -96.44041 35132 ft 504 kts 42°
2026-05-06 13:28 45.64420 -96.36886 35114 ft 502 kts 43°
2026-05-06 13:28 45.69285 -96.29725 35112 ft 501 kts 43°
2026-05-06 13:29 45.74151 -96.22546 35127 ft 502 kts 43°
2026-05-06 13:29 45.78986 -96.15394 35123 ft 503 kts 43°
2026-05-06 13:30 45.83839 -96.08194 35123 ft 501 kts 43°
2026-05-06 13:30 45.88676 -96.00998 35118 ft 500 kts 43°
2026-05-06 13:31 45.93505 -95.93796 35116 ft 500 kts 43°
2026-05-06 13:31 45.98335 -95.86575 35118 ft 501 kts 43°
2026-05-06 13:32 46.03175 -95.79317 35121 ft 502 kts 43°
2026-05-06 13:32 46.07955 -95.72128 35114 ft 500 kts 43°
2026-05-06 13:33 46.12762 -95.64882 35109 ft 500 kts 43°
2026-05-06 13:33 46.17568 -95.57618 35112 ft 500 kts 43°
2026-05-06 13:34 46.22369 -95.50341 35099 ft 501 kts 43°
2026-05-06 13:34 46.27175 -95.43037 35101 ft 500 kts 43°
2026-05-06 13:35 46.31961 -95.35742 35092 ft 499 kts 44°
2026-05-06 13:35 46.36708 -95.28488 35104 ft 499 kts 44°
2026-05-06 13:36 46.41480 -95.21177 35079 ft 499 kts 44°
2026-05-06 13:36 46.46245 -95.13856 35092 ft 500 kts 44°
2026-05-06 13:37 46.51011 -95.06513 35081 ft 499 kts 44°
2026-05-06 13:37 46.55773 -94.99156 35083 ft 498 kts 44°
2026-05-06 13:38 46.60490 -94.91848 35084 ft 498 kts 44°
2026-05-06 13:38 46.65229 -94.84488 35075 ft 499 kts 44°
2026-05-06 13:39 46.69978 -94.77091 35072 ft 501 kts 44°
2026-05-06 13:39 46.74737 -94.69659 35074 ft 501 kts 44°
2026-05-06 13:40 46.79493 -94.62208 35058 ft 501 kts 44°
2026-05-06 13:40 46.84239 -94.54754 35054 ft 501 kts 44°
2026-05-06 13:41 46.88978 -94.47289 35069 ft 501 kts 44°
2026-05-06 13:41 46.93682 -94.39860 35051 ft 500 kts 45°
2026-05-06 13:42 46.98406 -94.32378 35045 ft 500 kts 45°
2026-05-06 13:42 47.03121 -94.24888 35045 ft 500 kts 45°
2026-05-06 13:43 47.07836 -94.17378 35044 ft 500 kts 45°
2026-05-06 13:43 47.12547 -94.09854 35076 ft 500 kts 45°
2026-05-06 13:44 47.17242 -94.02332 35072 ft 499 kts 45°
2026-05-06 13:44 47.21934 -93.94796 35072 ft 499 kts 45°
2026-05-06 13:45 47.26595 -93.87288 35074 ft 499 kts 45°
2026-05-06 13:45 47.33611 -93.75948 35085 ft 499 kts 45°
2026-05-06 13:46 47.38271 -93.68387 35054 ft 497 kts 45°
2026-05-06 13:46 47.42919 -93.60824 35055 ft 497 kts 45°
2026-05-06 13:47 47.47556 -93.53261 35060 ft 497 kts 45°
2026-05-06 13:47 47.52198 -93.45666 35064 ft 497 kts 45°
2026-05-06 13:48 47.56824 -93.38076 35065 ft 496 kts 46°
2026-05-06 13:48 47.61435 -93.30488 35054 ft 495 kts 46°
2026-05-06 13:49 47.66050 -93.22874 35054 ft 496 kts 46°
2026-05-06 13:49 47.70630 -93.15294 35040 ft 496 kts 46°
2026-05-06 13:50 47.75235 -93.07651 35040 ft 496 kts 46°
2026-05-06 13:50 47.79832 -92.99999 35033 ft 495 kts 46°
2026-05-06 13:51 47.84413 -92.92353 35001 ft 495 kts 46°
2026-05-06 13:51 47.88996 -92.84683 34996 ft 496 kts 46°
2026-05-06 13:52 47.93581 -92.76985 35020 ft 496 kts 46°
2026-05-06 13:52 47.98165 -92.69268 35015 ft 496 kts 46°
2026-05-06 13:53 48.02735 -92.61549 35017 ft 495 kts 46°
2026-05-06 13:53 48.07293 -92.53831 35013 ft 495 kts 46°
2026-05-06 13:54 48.11818 -92.46147 35012 ft 496 kts 46°
2026-05-06 13:54 48.16372 -92.38390 35007 ft 496 kts 46°
2026-05-06 13:55 48.20927 -92.30608 35019 ft 496 kts 47°
2026-05-06 13:55 48.25466 -92.22830 35006 ft 494 kts 47°
2026-05-06 13:56 48.29995 -92.15046 35002 ft 494 kts 47°
2026-05-06 13:56 48.34511 -92.07264 35003 ft 495 kts 47°
2026-05-06 13:57 48.39003 -91.99501 34992 ft 495 kts 47°
2026-05-06 13:57 48.43521 -91.91669 34999 ft 495 kts 47°
2026-05-06 13:58 48.48019 -91.83847 34991 ft 494 kts 47°
2026-05-06 13:58 48.52511 -91.76014 34989 ft 493 kts 47°
2026-05-06 13:59 48.56998 -91.68166 34985 ft 494 kts 47°
2026-05-06 13:59 48.61484 -91.60298 34986 ft 495 kts 47°
2026-05-06 14:00 48.65969 -91.52407 34986 ft 494 kts 47°
2026-05-06 14:00 48.70438 -91.44520 34982 ft 493 kts 47°
2026-05-06 14:01 48.74891 -91.36638 34974 ft 492 kts 48°
2026-05-06 14:01 48.79341 -91.28738 34975 ft 493 kts 48°
2026-05-06 14:02 48.83791 -91.20814 34966 ft 493 kts 48°
2026-05-06 14:02 48.88235 -91.12879 34966 ft 493 kts 48°
2026-05-06 14:03 48.92677 -91.04921 34966 ft 493 kts 48°
2026-05-06 14:03 48.97084 -90.97004 34966 ft 493 kts 48°
2026-05-06 14:04 49.01514 -90.89022 34965 ft 493 kts 48°
2026-05-06 14:04 49.05941 -90.81019 34960 ft 494 kts 48°
2026-05-06 14:05 49.10373 -90.72984 34962 ft 494 kts 49°
2026-05-06 14:05 49.14790 -90.64951 34954 ft 493 kts 49°
2026-05-06 14:06 49.19199 -90.56908 34958 ft 493 kts 49°
2026-05-06 14:06 49.23600 -90.48857 34955 ft 493 kts 49°
2026-05-06 14:07 49.27989 -90.40800 34955 ft 493 kts 49°
2026-05-06 14:07 49.32358 -90.32759 34954 ft 494 kts 49°
2026-05-06 14:08 49.36744 -90.24660 34955 ft 493 kts 49°
2026-05-06 14:08 49.41124 -90.16547 34955 ft 493 kts 49°
2026-05-06 14:09 49.44748 -90.09816 34952 ft 493 kts 49°
2026-05-06 14:09 49.49111 -90.01689 34952 ft 493 kts 49°
2026-05-06 14:10 49.53594 -89.93687 34956 ft 493 kts 46°
2026-05-06 14:10 49.58306 -89.86019 34948 ft 492 kts 45°
2026-05-06 14:11 49.62982 -89.78411 34948 ft 492 kts 46°
2026-05-06 14:11 49.67655 -89.70667 34952 ft 492 kts 46°
2026-05-06 14:12 49.72303 -89.62879 34948 ft 492 kts 46°
2026-05-06 14:12 49.76941 -89.55075 34952 ft 492 kts 46°
2026-05-06 14:13 49.81536 -89.47326 34949 ft 491 kts 46°
2026-05-06 14:13 49.86150 -89.39521 34947 ft 491 kts 46°
2026-05-06 14:14 49.90766 -89.31693 34945 ft 491 kts 46°
2026-05-06 14:14 49.95380 -89.23845 34944 ft 492 kts 46°
2026-05-06 14:15 49.99982 -89.15989 34945 ft 491 kts 47°
2026-05-06 14:15 50.04536 -89.08187 34944 ft 490 kts 47°
2026-05-06 14:16 50.09117 -89.00320 34917 ft 490 kts 47°
2026-05-06 14:16 50.13694 -88.92439 34909 ft 491 kts 47°
2026-05-06 14:17 50.18271 -88.84531 34901 ft 491 kts 47°
2026-05-06 14:17 50.22845 -88.76607 34899 ft 489 kts 47°
2026-05-06 14:18 50.27392 -88.68704 34905 ft 489 kts 47°
2026-05-06 14:18 50.31933 -88.60782 34910 ft 489 kts 47°
2026-05-06 14:19 50.36473 -88.52844 34917 ft 489 kts 47°
2026-05-06 14:19 50.41009 -88.44886 34921 ft 490 kts 47°
2026-05-06 14:20 50.45537 -88.36914 34922 ft 489 kts 48°
2026-05-06 14:20 50.50052 -88.28942 34918 ft 488 kts 47°
2026-05-06 14:21 50.54565 -88.20951 34919 ft 488 kts 48°
2026-05-06 14:21 50.59070 -88.12946 34913 ft 489 kts 48°
2026-05-06 14:22 50.63546 -88.04970 34912 ft 489 kts 48°
2026-05-06 14:22 50.68040 -87.96935 34909 ft 488 kts 48°
2026-05-06 14:23 50.72528 -87.88885 34905 ft 488 kts 48°
2026-05-06 14:23 50.77003 -87.80831 34901 ft 488 kts 48°
2026-05-06 14:24 50.81481 -87.72750 34897 ft 488 kts 48°
2026-05-06 14:24 50.85948 -87.64663 34905 ft 488 kts 49°
2026-05-06 14:25 50.90374 -87.56625 34894 ft 487 kts 48°
2026-05-06 14:25 50.94818 -87.48528 34889 ft 486 kts 49°
2026-05-06 14:26 50.99251 -87.40424 34891 ft 486 kts 49°
2026-05-06 14:26 51.03687 -87.32290 34882 ft 486 kts 49°
2026-05-06 14:27 51.08109 -87.24156 34882 ft 487 kts 49°
2026-05-06 14:27 51.12538 -87.15985 34879 ft 487 kts 49°
2026-05-06 14:28 51.16958 -87.07801 34876 ft 487 kts 49°
2026-05-06 14:28 51.21348 -86.99647 34877 ft 487 kts 49°
2026-05-06 14:29 51.25757 -86.91431 34872 ft 488 kts 49°
2026-05-06 14:29 51.30168 -86.83186 34876 ft 488 kts 49°
2026-05-06 14:30 51.34562 -86.74945 34863 ft 486 kts 49°
2026-05-06 14:30 51.38946 -86.66698 34862 ft 486 kts 49°
2026-05-06 14:31 51.43317 -86.58450 34862 ft 487 kts 49°
2026-05-06 14:31 51.47696 -86.50160 34858 ft 487 kts 49°
2026-05-06 14:32 51.52072 -86.41844 34861 ft 487 kts 49°
2026-05-06 14:32 51.56413 -86.33570 34839 ft 487 kts 49°
2026-05-06 14:33 51.60771 -86.25240 34842 ft 486 kts 49°
2026-05-06 14:33 51.65116 -86.16907 34835 ft 486 kts 49°
2026-05-06 14:34 51.69452 -86.08560 34817 ft 487 kts 49°
2026-05-06 14:34 51.73795 -86.00169 34832 ft 487 kts 49°
2026-05-06 14:35 51.78142 -85.91749 34838 ft 487 kts 49°
2026-05-06 14:35 51.82439 -85.83395 34825 ft 486 kts 49°
2026-05-06 14:36 51.86755 -85.74978 34830 ft 486 kts 49°
2026-05-06 14:36 51.91065 -85.66545 34839 ft 486 kts 49°
2026-05-06 14:37 51.95373 -85.58085 34832 ft 486 kts 49°
2026-05-06 14:37 51.99674 -85.49614 34826 ft 487 kts 49°
2026-05-06 14:38 52.03969 -85.41125 34822 ft 486 kts 49°
2026-05-06 14:38 52.08259 -85.32618 34824 ft 486 kts 49°
2026-05-06 14:39 52.12544 -85.24092 34824 ft 487 kts 49°
2026-05-06 14:39 52.16795 -85.15602 34819 ft 487 kts 49°
2026-05-06 14:40 52.21065 -85.07047 34822 ft 486 kts 50°
2026-05-06 14:40 52.25334 -84.98466 34812 ft 487 kts 50°
2026-05-06 14:41 52.29602 -84.89860 34811 ft 487 kts 49°
2026-05-06 14:41 52.33863 -84.81249 34814 ft 487 kts 50°
2026-05-06 14:42 52.38123 -84.72604 34815 ft 488 kts 50°
2026-05-06 14:42 52.42378 -84.63930 34819 ft 487 kts 50°
2026-05-06 14:43 52.46587 -84.55321 34805 ft 487 kts 50°
2026-05-06 14:43 52.50810 -84.46654 34805 ft 487 kts 50°
2026-05-06 14:44 52.55039 -84.37955 34801 ft 486 kts 50°
2026-05-06 14:45 52.61359 -84.24892 34796 ft 487 kts 50°
2026-05-06 14:45 52.65565 -84.16162 34791 ft 486 kts 50°
2026-05-06 14:46 52.69756 -84.07432 34794 ft 485 kts 51°
2026-05-06 14:46 52.73930 -83.98701 34787 ft 485 kts 51°
2026-05-06 14:47 52.78102 -83.89946 34783 ft 486 kts 51°